Station Historical Data
Daily Summary for May 21, 2017 Units:  Metric    English   Both
« Previous Day
Next Day »
Daily Weekly Monthly Yearly Custom
  High: Low: Average:
Temperature: 23.2 °C 12.6 °C 16.6 °C
Dew Point: 17.2 °C 4.9 °C 12.3 °C
Humidity: 90% 55% 76%
Wind Speed: 12.9km/h 0km/h 3.9km/h
Wind Gust: 29km/h - -
Wind- - SE
Pressure: 1022.6 hPa 1013.8 hPa -
Precipitation: 7.87 mm    
Historical Graphs
 
 
Tabular Data for May 21, 2017
Time Temperature Dew Point Pressure Wind Wind Speed Wind Gust Humidity Rainfall Rate (Hourly)
00:00 13.8 °C 4.9 °C 1022.6 hPa ENE 6.4 km/h 17.7 km/h 55% 0 mm
00:05 13.6 °C 5.2 °C 1022.6 hPa East 9.7 km/h 12.9 km/h 57% 0 mm
00:10 13.5 °C 5.4 °C 1022.6 hPa East 4.8 km/h 14.5 km/h 58% 0 mm
00:15 13.4 °C 5.6 °C 1022.6 hPa East 6.4 km/h 20.9 km/h 59% 0 mm
00:20 13.3 °C 5.9 °C 1022.2 hPa East 6.4 km/h 20.9 km/h 61% 0 mm
00:25 13.4 °C 5.8 °C 1022.2 hPa East 6.4 km/h 16.1 km/h 60% 0 mm
00:30 13.4 °C 6.1 °C 1022.2 hPa ESE 1.6 km/h 12.9 km/h 61% 0 mm
00:35 13.4 °C 6.1 °C 1022.2 hPa ENE 4.8 km/h 11.3 km/h 61% 0 mm
00:40 13.4 °C 6.3 °C 1022.2 hPa East 1.6 km/h 9.7 km/h 62% 0 mm
00:45 13.5 °C 6.1 °C 1022.2 hPa East 1.6 km/h 9.7 km/h 61% 0 mm
00:50 13.5 °C 6.3 °C 1022.2 hPa Calm   9.7 km/h 62% 0 mm
00:55 13.6 °C 6.4 °C 1022.6 hPa ENE 1.6 km/h 9.7 km/h 62% 0 mm
01:00 13.5 °C 6.3 °C 1022.6 hPa ESE 1.6 km/h 9.7 km/h 62% 0 mm
01:05 13.5 °C 6.6 °C 1022.2 hPa ENE 3.2 km/h 9.7 km/h 63% 0 mm
01:10 13.5 °C 6.6 °C 1022.2 hPa ENE 3.2 km/h 8 km/h 63% 0 mm
01:15 13.4 °C 6.6 °C 1022.2 hPa ENE 4.8 km/h 11.3 km/h 63% 0 mm
01:20 13.4 °C 6.8 °C 1021.9 hPa ENE 4.8 km/h 11.3 km/h 64% 0 mm
01:25 13.4 °C 7 °C 1021.9 hPa ENE 6.4 km/h 12.9 km/h 65% 0 mm
01:30 13.3 °C 6.9 °C 1021.9 hPa ENE 6.4 km/h 9.7 km/h 65% 0 mm
01:35 13.3 °C 6.9 °C 1021.9 hPa East 4.8 km/h 9.7 km/h 65% 0 mm
01:40 13.3 °C 6.8 °C 1021.9 hPa ESE 4.8 km/h 8 km/h 65% 0 mm
01:45 13.2 °C 7 °C 1021.9 hPa ESE 1.6 km/h 9.7 km/h 66% 0 mm
01:50 13.3 °C 7.1 °C 1021.9 hPa NE 3.2 km/h 8 km/h 66% 0 mm
01:55 13.3 °C 7.1 °C 1021.9 hPa Calm   8 km/h 66% 0 mm
02:00 13.2 °C 7 °C 1021.6 hPa East 4.8 km/h 6.4 km/h 66% 0 mm
02:05 13.2 °C 7 °C 1021.6 hPa East 3.2 km/h 8 km/h 66% 0 mm
02:10 13.2 °C 6.9 °C 1021.6 hPa ENE 3.2 km/h 9.7 km/h 66% 0 mm
02:15 13.2 °C 7.2 °C 1021.2 hPa ENE 4.8 km/h 11.3 km/h 67% 0 mm
02:20 13.2 °C 7.2 °C 1021.2 hPa ENE 8 km/h 11.3 km/h 67% 0 mm
02:25 13.1 °C 7.3 °C 1021.2 hPa ENE 4.8 km/h 11.3 km/h 68% 0 mm
02:30 13.1 °C 7.3 °C 1021.2 hPa NE 4.8 km/h 8 km/h 68% 0 mm
02:35 13.1 °C 7.3 °C 1021.2 hPa ENE 4.8 km/h 9.7 km/h 68% 0 mm
02:40 13 °C 7.2 °C 1021.2 hPa ENE 1.6 km/h 8 km/h 68% 0 mm
02:45 13.1 °C 7.3 °C 1021.2 hPa Calm   6.4 km/h 68% 0 mm
02:50 13.1 °C 7.3 °C 1021.2 hPa ENE 3.2 km/h 11.3 km/h 68% 0 mm
02:55 13.2 °C 7.4 °C 1021.6 hPa ENE 3.2 km/h 11.3 km/h 68% 0 mm
03:00 13.1 °C 7.6 °C 1021.6 hPa NE 4.8 km/h 11.3 km/h 69% 0 mm
03:05 13.1 °C 7.5 °C 1021.2 hPa ENE 3.2 km/h 8 km/h 69% 0 mm
03:10 13.1 °C 7.5 °C 1021.2 hPa ENE 6.4 km/h 11.3 km/h 69% 0 mm
03:15 13 °C 7.4 °C 1020.9 hPa ENE 8 km/h 12.9 km/h 69% 0 mm
03:20 12.9 °C 7.4 °C 1020.9 hPa NE 4.8 km/h 12.9 km/h 69% 0 mm
03:25 13 °C 7.4 °C 1020.9 hPa ENE 6.4 km/h 14.5 km/h 69% 0 mm
03:30 12.9 °C 7.4 °C 1020.5 hPa ENE 6.4 km/h 16.1 km/h 69% 0 mm
03:35 12.8 °C 7.3 °C 1020.5 hPa NE 8 km/h 16.1 km/h 69% 0 mm
03:40 12.7 °C 7.2 °C 1020.5 hPa NE 8 km/h 14.5 km/h 69% 0 mm
03:45 12.7 °C 7.3 °C 1020.5 hPa NE 6.4 km/h 12.9 km/h 70% 0 mm
03:50 12.6 °C 7.3 °C 1020.2 hPa NE 4.8 km/h 14.5 km/h 70% 0 mm
03:55 12.6 °C 7.4 °C 1020.2 hPa NE 6.4 km/h 14.5 km/h 71% 0 mm
04:00 12.6 °C 7.5 °C 1020.2 hPa NE 4.8 km/h 9.7 km/h 71% 0 mm
04:05 12.6 °C 7.5 °C 1020.2 hPa ENE 4.8 km/h 6.4 km/h 71% 0 mm
04:10 12.7 °C 7.8 °C 1020.2 hPa ENE 3.2 km/h 11.3 km/h 72% 0 mm
04:15 12.8 °C 7.9 °C 1020.2 hPa ENE 3.2 km/h 9.7 km/h 72% 0 mm
04:20 12.8 °C 7.9 °C 1020.2 hPa ENE 4.8 km/h 6.4 km/h 72% 0 mm
04:25 12.8 °C 7.9 °C 1020.2 hPa ENE 3.2 km/h 6.4 km/h 72% 0 mm
04:30 12.8 °C 7.9 °C 1020.2 hPa ENE 3.2 km/h 9.7 km/h 72% 0 mm
04:35 12.8 °C 8.1 °C 1020.2 hPa ENE 4.8 km/h 11.3 km/h 73% 0 mm
04:40 12.8 °C 8.1 °C 1020.2 hPa ENE 3.2 km/h 11.3 km/h 73% 0 mm
04:45 12.8 °C 8.1 °C 1020.2 hPa ENE 4.8 km/h 9.7 km/h 73% 0 mm
04:50 12.8 °C 8.1 °C 1019.9 hPa NE 6.4 km/h 9.7 km/h 73% 0 mm
04:55 12.9 °C 8.2 °C 1019.9 hPa ENE 6.4 km/h 11.3 km/h 73% 0 mm
05:00 12.8 °C 8.3 °C 1019.9 hPa ENE 4.8 km/h 11.3 km/h 74% 0 mm
05:05 12.8 °C 8.3 °C 1019.9 hPa ENE 4.8 km/h 11.3 km/h 74% 0 mm
05:10 12.8 °C 8.5 °C 1019.5 hPa ENE 4.8 km/h 11.3 km/h 75% 0 mm
05:15 12.8 °C 8.5 °C 1019.5 hPa East 1.6 km/h 8 km/h 75% 0 mm
05:20 12.8 °C 8.7 °C 1019.5 hPa East 3.2 km/h 11.3 km/h 76% 0 mm
05:25 12.8 °C 8.7 °C 1019.5 hPa ENE 1.6 km/h 9.7 km/h 76% 0 mm
05:30 12.8 °C 8.7 °C 1019.5 hPa ENE 4.8 km/h 12.9 km/h 76% 0 mm
05:35 12.9 °C 8.9 °C 1019.5 hPa East 4.8 km/h 6.4 km/h 77% 0 mm
05:40 13 °C 9.1 °C 1019.5 hPa NE 6.4 km/h 8 km/h 77% 0 mm
05:45 13.1 °C 9 °C 1019.9 hPa ENE 4.8 km/h 6.4 km/h 76% 0 mm
05:50 13.2 °C 9.2 °C 1019.9 hPa ENE 4.8 km/h 8 km/h 77% 0 mm
05:55 13.2 °C 9.1 °C 1019.5 hPa ENE 4.8 km/h 11.3 km/h 76% 0 mm
06:00 13.3 °C 9.3 °C 1019.5 hPa ENE 4.8 km/h 11.3 km/h 77% 0 mm
06:05 13.3 °C 9.3 °C 1019.5 hPa ENE 3.2 km/h 11.3 km/h 77% 0 mm
06:10 13.3 °C 9.4 °C 1019.9 hPa ENE 3.2 km/h 9.7 km/h 77% 0 mm
06:15 13.3 °C 9.4 °C 1019.5 hPa NE 3.2 km/h 6.4 km/h 77% 0 mm
06:20 13.4 °C 9.5 °C 1019.5 hPa ENE 3.2 km/h 11.3 km/h 77% 0 mm
06:25 13.5 °C 9.6 °C 1019.5 hPa East 3.2 km/h 9.7 km/h 77% 0 mm
06:30 13.6 °C 9.6 °C 1019.5 hPa East 3.2 km/h 8 km/h 77% 0 mm
06:35 13.6 °C 9.8 °C 1019.2 hPa East 3.2 km/h 8 km/h 78% 0 mm
06:40 13.7 °C 9.9 °C 1019.2 hPa ENE 4.8 km/h 11.3 km/h 78% 0 mm
06:45 13.7 °C 9.9 °C 1019.2 hPa East 3.2 km/h 9.7 km/h 78% 0 mm
06:50 13.7 °C 9.9 °C 1019.2 hPa East 4.8 km/h 9.7 km/h 78% 0 mm
06:55 13.7 °C 9.9 °C 1019.2 hPa East 1.6 km/h 8 km/h 78% 0 mm
07:00 13.8 °C 10.1 °C 1019.2 hPa East 3.2 km/h 8 km/h 78% 0 mm
07:05 14 °C 10.2 °C 1019.2 hPa East 3.2 km/h 9.7 km/h 78% 0 mm
07:10 14.1 °C 10.3 °C 1019.2 hPa ESE 3.2 km/h 11.3 km/h 78% 0 mm
07:15 14.3 °C 10.5 °C 1018.8 hPa ESE 3.2 km/h 11.3 km/h 78% 0 mm
07:20 14.4 °C 10.7 °C 1019.2 hPa SE 3.2 km/h 9.7 km/h 78% 0 mm
07:25 14.7 °C 10.9 °C 1019.2 hPa SE 1.6 km/h 9.7 km/h 78% 0 mm
07:30 15 °C 11.2 °C 1019.2 hPa Calm   4.8 km/h 78% 0 mm
07:35 15.4 °C 11.4 °C 1019.2 hPa East 1.6 km/h 9.7 km/h 77% 0 mm
07:40 15.6 °C 11.6 °C 1019.5 hPa Calm   9.7 km/h 77% 0 mm
07:45 15.7 °C 11.7 °C 1019.5 hPa Calm     77% 0 mm
07:50 15.8 °C 11.8 °C 1019.5 hPa Calm     77% 0 mm
07:55 15.9 °C 11.9 °C 1019.2 hPa Calm     77% 0 mm
08:00 16 °C 11.9 °C 1019.5 hPa Calm     77% 0 mm
08:05 16 °C 12.3 °C 1019.2 hPa Calm     79% 0 mm
08:10 15.8 °C 12.4 °C 1019.5 hPa Calm     80% 0 mm
08:15 15.8 °C 12.5 °C 1019.5 hPa Calm     81% 0 mm
08:20 15.6 °C 12.7 °C 1019.9 hPa Calm     83% 1.27 mm
08:25 15.4 °C 12.7 °C 1019.9 hPa Calm     84% 1.52 mm
08:30 15.3 °C 12.9 °C 1020.2 hPa WNW 3.2 km/h 6.4 km/h 86% 1.52 mm
08:35 15.1 °C 12.7 °C 1019.9 hPa WNW 1.6 km/h 9.7 km/h 86% 2.03 mm
08:40 14.9 °C 12.7 °C 1019.9 hPa Calm   1.6 km/h 87% 2.29 mm
08:45 14.8 °C 12.9 °C 1019.9 hPa WNW 3.2 km/h 3.2 km/h 88% 2.54 mm
08:50 14.8 °C 12.9 °C 1019.9 hPa Calm   3.2 km/h 88% 3.81 mm
08:55 14.7 °C 12.9 °C 1019.5 hPa Calm     89% 4.06 mm
09:00 14.7 °C 12.9 °C 1019.5 hPa Calm     89% 4.06 mm
09:05 14.9 °C 13.3 °C 1019.2 hPa Calm   1.6 km/h 90% 4.06 mm
09:10 15.1 °C 13.5 °C 1019.2 hPa Calm   1.6 km/h 90% 4.06 mm
09:15 15.2 °C 13.6 °C 1019.2 hPa Calm     90% 4.06 mm
09:20 15.4 °C 13.8 °C 1019.2 hPa Calm     90% 2.79 mm
09:25 15.8 °C 14.2 °C 1019.2 hPa Calm     90% 2.54 mm
09:30 15.7 °C 13.8 °C 1019.2 hPa NNE 1.6 km/h 4.8 km/h 89% 2.54 mm
09:35 15.7 °C 13.8 °C 1019.2 hPa NNE 1.6 km/h 3.2 km/h 89% 2.03 mm
09:40 15.8 °C 13.9 °C 1019.2 hPa NNE 1.6 km/h 3.2 km/h 89% 1.52 mm
09:45 15.8 °C 13.8 °C 1019.2 hPa Calm   3.2 km/h 88% 1.52 mm
09:50 16.1 °C 14.2 °C 1019.2 hPa Calm     89% 0.25 mm
09:55 16.3 °C 14.3 °C 1018.8 hPa Calm     88% 0 mm
10:00 16.8 °C 14.8 °C 1018.8 hPa Calm     88% 0 mm
10:05 16.9 °C 14.6 °C 1018.8 hPa ESE 1.6 km/h 8 km/h 86% 0 mm
10:10 16.9 °C 14.6 °C 1018.8 hPa East 1.6 km/h 8 km/h 86% 0 mm
10:15 17 °C 14.7 °C 1018.8 hPa East 3.2 km/h 3.2 km/h 86% 0 mm
10:20 17 °C 14.4 °C 1018.8 hPa Calm   4.8 km/h 85% 0 mm
10:25 17 °C 14.4 °C 1018.8 hPa ESE 3.2 km/h 4.8 km/h 85% 0 mm
10:30 17.1 °C 14.6 °C 1018.8 hPa ENE 1.6 km/h 4.8 km/h 85% 0 mm
10:35 17.2 °C 14.7 °C 1018.8 hPa East 1.6 km/h 4.8 km/h 85% 0 mm
10:40 17.3 °C 14.8 °C 1018.8 hPa ENE 1.6 km/h 4.8 km/h 85% 0 mm
10:45 17.4 °C 14.7 °C 1018.8 hPa ENE 3.2 km/h 8 km/h 84% 0 mm
10:50 17.7 °C 14.9 °C 1018.5 hPa ENE 3.2 km/h 8 km/h 84% 0 mm
10:55 18.1 °C 15.1 °C 1018.5 hPa ENE 1.6 km/h 6.4 km/h 83% 0 mm
11:00 18.2 °C 14.8 °C 1018.5 hPa Calm     81% 0 mm
11:05 18.6 °C 15.4 °C 1018.5 hPa ENE 3.2 km/h 4.8 km/h 82% 0 mm
11:10 19 °C 15.4 °C 1018.5 hPa Calm   4.8 km/h 80% 0 mm
11:15 19.2 °C 15.4 °C 1018.5 hPa East 3.2 km/h 11.3 km/h 79% 0 mm
11:20 19.4 °C 15.3 °C 1018.5 hPa ENE 3.2 km/h 6.4 km/h 77% 0 mm
11:25 19.6 °C 15.1 °C 1018.2 hPa East 1.6 km/h 11.3 km/h 75% 0 mm
11:30 19.8 °C 15.3 °C 1018.2 hPa ENE 3.2 km/h 9.7 km/h 75% 0 mm
11:35 20 °C 15.4 °C 1017.8 hPa East 1.6 km/h 9.7 km/h 75% 0 mm
11:40 20.1 °C 15.3 °C 1017.8 hPa ENE 1.6 km/h 4.8 km/h 74% 0 mm
11:45 20.3 °C 15.8 °C 1017.8 hPa Calm     75% 0 mm
11:50 20.6 °C 15.8 °C 1017.8 hPa East 1.6 km/h 4.8 km/h 74% 0 mm
11:55 20.7 °C 15.5 °C 1017.8 hPa East 1.6 km/h 4.8 km/h 72% 0 mm
12:05 21.2 °C 15.8 °C 1017.5 hPa Calm   3.2 km/h 71% 0 mm
12:10 21.5 °C 16.2 °C 1017.5 hPa Calm   4.8 km/h 72% 0 mm
12:15 21.8 °C 16.1 °C 1017.5 hPa East 4.8 km/h 6.4 km/h 70% 0 mm
12:20 21.9 °C 16.4 °C 1017.2 hPa SE 3.2 km/h 6.4 km/h 71% 0 mm
12:25 21.8 °C 15.9 °C 1017.2 hPa SSE 3.2 km/h 8 km/h 69% 0 mm
12:30 21.7 °C 15.6 °C 1017.2 hPa Calm   6.4 km/h 68% 0 mm
12:35 21.8 °C 15.8 °C 1017.2 hPa SSE 1.6 km/h 6.4 km/h 69% 0 mm
12:40 21.8 °C 16.1 °C 1017.2 hPa Calm     70% 0 mm
12:45 21.9 °C 16.2 °C 1017.2 hPa Calm     70% 0 mm
12:50 22.2 °C 16.3 °C 1016.8 hPa Calm     69% 0 mm
12:55 22.6 °C 16.1 °C 1016.8 hPa Calm   6.4 km/h 67% 0 mm
13:00 22.6 °C 16.1 °C 1016.8 hPa East 1.6 km/h 6.4 km/h 67% 0 mm
13:05 22.5 °C 15.8 °C 1016.8 hPa East 1.6 km/h 4.8 km/h 66% 0 mm
13:10 22.6 °C 15.9 °C 1016.8 hPa Calm   4.8 km/h 66% 0 mm
13:15 22.5 °C 15.6 °C 1016.5 hPa Calm     65% 0 mm
13:20 22.6 °C 16.1 °C 1016.5 hPa Calm   4.8 km/h 67% 0 mm
13:25 22.7 °C 16.2 °C 1016.5 hPa Calm   3.2 km/h 67% 0 mm
13:30 22.8 °C 16.3 °C 1016.5 hPa Calm     67% 0 mm
13:35 22.7 °C 16.1 °C 1016.5 hPa Calm   4.8 km/h 66% 0 mm
13:40 22.8 °C 16.3 °C 1016.5 hPa Calm   6.4 km/h 67% 0 mm
13:45 22.9 °C 16 °C 1016.5 hPa SW 1.6 km/h 9.7 km/h 65% 0 mm
13:50 23.1 °C 16.2 °C 1016.5 hPa South 1.6 km/h 8 km/h 65% 0 mm
13:55 23.2 °C 16.4 °C 1016.5 hPa SSW 1.6 km/h 4.8 km/h 66% 0 mm
14:00 22.7 °C 16.7 °C 1016.5 hPa WNW 4.8 km/h 9.7 km/h 69% 0 mm
14:05 22.3 °C 16.6 °C 1016.1 hPa WNW 4.8 km/h 9.7 km/h 70% 0 mm
14:10 22.2 °C 16.5 °C 1016.1 hPa WNW 3.2 km/h 8 km/h 70% 0 mm
14:15 22.4 °C 16.7 °C 1016.1 hPa NW 1.6 km/h 6.4 km/h 70% 0 mm
14:20 22.4 °C 16.5 °C 1016.1 hPa Calm   1.6 km/h 69% 0 mm
14:25 22.4 °C 16.5 °C 1016.1 hPa Calm   4.8 km/h 69% 0 mm
14:30 22.4 °C 16.7 °C 1016.1 hPa WSW 1.6 km/h 3.2 km/h 70% 0 mm
14:35 22.3 °C 16.8 °C 1016.1 hPa WSW 1.6 km/h 4.8 km/h 71% 0 mm
14:40 22.1 °C 16.8 °C 1016.1 hPa West 3.2 km/h 4.8 km/h 72% 0 mm
14:45 21.9 °C 16.9 °C 1016.1 hPa West 1.6 km/h 4.8 km/h 73% 0 mm
14:50 22 °C 17.2 °C 1015.8 hPa Calm   1.6 km/h 74% 0 mm
14:55 22 °C 16.7 °C 1015.8 hPa Calm     72% 0 mm
15:00 22.1 °C 16.3 °C 1015.8 hPa Calm     70% 0 mm
15:05 22.1 °C 16.4 °C 1015.8 hPa Calm   3.2 km/h 70% 0 mm
15:10 22.2 °C 16 °C 1015.5 hPa SW 1.6 km/h 6.4 km/h 68% 0 mm
15:15 22.3 °C 15.8 °C 1015.5 hPa SSW 3.2 km/h 8 km/h 67% 0 mm
15:20 22.4 °C 15.8 °C 1015.5 hPa South 3.2 km/h 8 km/h 66% 0 mm
15:25 22.4 °C 15.8 °C 1015.5 hPa South 3.2 km/h 9.7 km/h 66% 0 mm
15:30 22.4 °C 15.6 °C 1015.5 hPa South 1.6 km/h 8 km/h 65% 0 mm
15:35 22.4 °C 15.7 °C 1015.5 hPa South 4.8 km/h 9.7 km/h 66% 0 mm
15:40 22.3 °C 15.8 °C 1015.1 hPa South 4.8 km/h 12.9 km/h 67% 0 mm
15:45 21.9 °C 16 °C 1015.1 hPa South 1.6 km/h 9.7 km/h 69% 0 mm
15:50 21.7 °C 16.2 °C 1015.1 hPa SSW 9.7 km/h 12.9 km/h 71% 0 mm
15:55 21.6 °C 16.1 °C 1015.1 hPa South 4.8 km/h 11.3 km/h 71% 0 mm
16:00 21.4 °C 15.9 °C 1015.1 hPa Calm   9.7 km/h 71% 0 mm
16:05 21.3 °C 16 °C 1015.1 hPa South 3.2 km/h 6.4 km/h 72% 0 mm
16:10 21.1 °C 16.1 °C 1015.5 hPa SSW 3.2 km/h 11.3 km/h 73% 0 mm
16:15 20.9 °C 16.1 °C 1015.5 hPa SSW 4.8 km/h 11.3 km/h 74% 0 mm
16:20 20.6 °C 15.9 °C 1015.8 hPa SSW 6.4 km/h 12.9 km/h 75% 0.25 mm
16:25 20.2 °C 16.2 °C 1015.8 hPa SSW 6.4 km/h 12.9 km/h 78% 0.51 mm
16:30 19.8 °C 16.1 °C 1015.8 hPa SSW 1.6 km/h 11.3 km/h 79% 0.51 mm
16:35 19.4 °C 16.1 °C 1015.8 hPa SW 4.8 km/h 8 km/h 81% 0.76 mm
16:40 19.2 °C 16 °C 1015.8 hPa SSW 3.2 km/h 9.7 km/h 82% 1.02 mm
16:45 18.9 °C 16.2 °C 1015.5 hPa SSW 3.2 km/h 11.3 km/h 84% 1.52 mm
16:50 18.7 °C 15.9 °C 1015.5 hPa South 3.2 km/h 11.3 km/h 84% 2.03 mm
16:55 18.6 °C 16.2 °C 1015.5 hPa Calm   6.4 km/h 86% 2.29 mm
17:00 18.6 °C 16.2 °C 1015.5 hPa Calm   6.4 km/h 86% 2.54 mm
17:05 18.4 °C 16.1 °C 1015.5 hPa SW 4.8 km/h 6.4 km/h 86% 2.54 mm
17:10 18.4 °C 16.2 °C 1015.5 hPa SSW 3.2 km/h 6.4 km/h 87% 2.54 mm
17:15 18.4 °C 16.2 °C 1015.5 hPa South 3.2 km/h 9.7 km/h 87% 2.54 mm
17:20 18.3 °C 16.1 °C 1015.5 hPa SSE 8 km/h 8 km/h 87% 2.29 mm
17:25 18.2 °C 16 °C 1015.1 hPa SSE 8 km/h 9.7 km/h 87% 2.29 mm
17:30 18.2 °C 15.8 °C 1015.5 hPa SSE 9.7 km/h 14.5 km/h 86% 2.29 mm
17:35 18.1 °C 15.6 °C 1015.1 hPa SSE 12.9 km/h 19.3 km/h 85% 2.03 mm
17:40 18.1 °C 15.5 °C 1015.1 hPa SSE 9.7 km/h 19.3 km/h 85% 1.52 mm
17:45 18 °C 15.4 °C 1015.1 hPa SSE 9.7 km/h 19.3 km/h 85% 1.02 mm
17:50 17.9 °C 15.4 °C 1015.1 hPa SSE 6.4 km/h 16.1 km/h 85% 0.76 mm
17:55 17.8 °C 15.3 °C 1015.1 hPa South 6.4 km/h 16.1 km/h 85% 0.51 mm
18:00 17.7 °C 14.9 °C 1015.1 hPa SSE 12.9 km/h 14.5 km/h 84% 0.51 mm
18:05 17.4 °C 14.7 °C 1014.8 hPa SE 6.4 km/h 16.1 km/h 84% 0.51 mm
18:10 17.2 °C 14.5 °C 1015.1 hPa SSE 8 km/h 16.1 km/h 84% 0.51 mm
18:15 16.9 °C 14 °C 1015.1 hPa South 9.7 km/h 24.1 km/h 83% 0.76 mm
18:20 16.7 °C 13.9 °C 1014.8 hPa South 11.3 km/h 20.9 km/h 84% 0.76 mm
18:25 16.6 °C 13.8 °C 1015.1 hPa SE 11.3 km/h 16.1 km/h 84% 0.51 mm
18:30 16.5 °C 13.9 °C 1015.1 hPa South 3.2 km/h 14.5 km/h 85% 0.51 mm
18:35 16.4 °C 14.1 °C 1015.1 hPa SSW 3.2 km/h 12.9 km/h 86% 0.76 mm
18:40 16.4 °C 14.1 °C 1015.1 hPa South 4.8 km/h 12.9 km/h 86% 0.76 mm
18:45 16.3 °C 14 °C 1015.1 hPa South 4.8 km/h 11.3 km/h 86% 1.02 mm
18:50 16.3 °C 14.2 °C 1014.8 hPa South 4.8 km/h 9.7 km/h 87% 1.02 mm
18:55 16.3 °C 14 °C 1014.8 hPa South 4.8 km/h 11.3 km/h 86% 1.02 mm
19:00 16.3 °C 14 °C 1014.8 hPa South 4.8 km/h 12.9 km/h 86% 0.76 mm
19:05 16.3 °C 13.8 °C 1014.8 hPa SSW 8 km/h 12.9 km/h 85% 0.76 mm
19:10 16.2 °C 13.7 °C 1014.8 hPa South 6.4 km/h 14.5 km/h 85% 0.76 mm
19:15 16.2 °C 13.4 °C 1014.8 hPa South 4.8 km/h 12.9 km/h 84% 0.51 mm
19:20 16.1 °C 13.4 °C 1014.8 hPa SE 4.8 km/h 12.9 km/h 84% 0.51 mm
19:25 16.1 °C 13.3 °C 1015.1 hPa SE 3.2 km/h 11.3 km/h 84% 0.51 mm
19:30 16.1 °C 13.3 °C 1014.8 hPa SSE 6.4 km/h 9.7 km/h 84% 0.51 mm
19:35 16.1 °C 13.3 °C 1014.8 hPa SSW 4.8 km/h 9.7 km/h 84% 0.25 mm
19:40 16 °C 13.3 °C 1014.8 hPa South 4.8 km/h 9.7 km/h 84% 0.25 mm
19:45 16 °C 13.1 °C 1014.8 hPa South 4.8 km/h 9.7 km/h 83% 0 mm
19:50 16 °C 13.1 °C 1014.8 hPa South 4.8 km/h 11.3 km/h 83% 0 mm
19:55 15.9 °C 13.1 °C 1014.8 hPa South 4.8 km/h 11.3 km/h 83% 0 mm
20:00 16 °C 13.1 °C 1014.8 hPa Calm   11.3 km/h 83% 0 mm
20:05 15.9 °C 13.1 °C 1014.8 hPa SSW 4.8 km/h 11.3 km/h 83% 0 mm
20:10 16 °C 13.1 °C 1014.8 hPa South 4.8 km/h 16.1 km/h 83% 0 mm
20:15 16.1 °C 13.1 °C 1014.8 hPa SSW 6.4 km/h 12.9 km/h 82% 0 mm
20:20 16.1 °C 13 °C 1014.8 hPa South 4.8 km/h 11.3 km/h 82% 0 mm
20:25 16.1 °C 13.1 °C 1014.8 hPa South 8 km/h 14.5 km/h 82% 0 mm
20:30 16.2 °C 12.9 °C 1014.8 hPa South 9.7 km/h 20.9 km/h 81% 0 mm
20:35 16.2 °C 12.9 °C 1014.4 hPa SSW 8 km/h 16.1 km/h 81% 0 mm
20:40 16.1 °C 13 °C 1014.4 hPa South 8 km/h 16.1 km/h 82% 0 mm
20:45 16 °C 12.7 °C 1014.4 hPa South 9.7 km/h 29 km/h 81% 0 mm
20:50 16 °C 12.7 °C 1014.4 hPa SSW 8 km/h 16.1 km/h 81% 0 mm
20:55 15.9 °C 12.6 °C 1014.4 hPa South 3.2 km/h 16.1 km/h 81% 0 mm
21:00 15.9 °C 12.8 °C 1014.4 hPa South 6.4 km/h 17.7 km/h 82% 0 mm
21:05 15.8 °C 12.8 °C 1014.4 hPa SSW 9.7 km/h 16.1 km/h 82% 0 mm
21:10 15.8 °C 12.7 °C 1014.4 hPa South 6.4 km/h 16.1 km/h 82% 0 mm
21:15 15.8 °C 12.7 °C 1014.4 hPa South 8 km/h 19.3 km/h 82% 0 mm
21:20 15.7 °C 12.7 °C 1014.8 hPa South 8 km/h 19.3 km/h 82% 0 mm
21:25 15.7 °C 12.7 °C 1014.8 hPa South 6.4 km/h 20.9 km/h 82% 0 mm
21:30 15.7 °C 12.7 °C 1014.8 hPa South 8 km/h 24.1 km/h 82% 0 mm
21:35 15.7 °C 12.6 °C 1014.4 hPa SSW 9.7 km/h 20.9 km/h 82% 0 mm
21:40 15.7 °C 12.6 °C 1014.4 hPa South 4.8 km/h 20.9 km/h 82% 0 mm
21:45 15.6 °C 12.5 °C 1014.4 hPa SSW 11.3 km/h 17.7 km/h 82% 0 mm
21:50 15.5 °C 12.4 °C 1014.4 hPa South 11.3 km/h 20.9 km/h 82% 0 mm
21:55 15.5 °C 12.3 °C 1014.4 hPa SSE 8 km/h 14.5 km/h 81% 0 mm
22:00 15.5 °C 12.3 °C 1014.4 hPa SSW 4.8 km/h 16.1 km/h 81% 0 mm
22:05 15.6 °C 12.3 °C 1014.4 hPa SSE 6.4 km/h 20.9 km/h 81% 0 mm
22:10 15.5 °C 12.3 °C 1014.1 hPa South 8 km/h 20.9 km/h 81% 0 mm
22:15 15.6 °C 12.3 °C 1014.4 hPa SSE 3.2 km/h 20.9 km/h 81% 0 mm
22:20 15.6 °C 12.3 °C 1014.4 hPa SSW 4.8 km/h 14.5 km/h 81% 0 mm
22:25 15.6 °C 12.3 °C 1014.4 hPa SSE 6.4 km/h 12.9 km/h 81% 0 mm
22:30 15.6 °C 12.3 °C 1014.4 hPa WSW 8 km/h 16.1 km/h 81% 0 mm
22:35 15.6 °C 12.3 °C 1014.4 hPa South 3.2 km/h 12.9 km/h 81% 0 mm
22:40 15.7 °C 12.2 °C 1014.1 hPa South 6.4 km/h 16.1 km/h 80% 0 mm
22:45 15.7 °C 12.2 °C 1014.1 hPa South 6.4 km/h 16.1 km/h 80% 0 mm
22:50 15.7 °C 12.3 °C 1014.1 hPa South 6.4 km/h 14.5 km/h 80% 0 mm
22:55 15.8 °C 12.5 °C 1014.1 hPa South 4.8 km/h 12.9 km/h 81% 0 mm
23:00 15.8 °C 12.4 °C 1014.1 hPa South 6.4 km/h 14.5 km/h 80% 0 mm
23:05 15.8 °C 12.6 °C 1014.1 hPa South 6.4 km/h 16.1 km/h 81% 0 mm
23:10 15.9 °C 12.7 °C 1014.1 hPa South 6.4 km/h 16.1 km/h 81% 0 mm
23:20 15.9 °C 12.7 °C 1013.8 hPa South 11.3 km/h 14.5 km/h 81% 0 mm
23:25 16 °C 12.6 °C 1013.8 hPa South 4.8 km/h 19.3 km/h 80% 0 mm
23:30 16.1 °C 12.6 °C 1013.8 hPa South 4.8 km/h 12.9 km/h 80% 0 mm
23:35 16.1 °C 12.6 °C 1013.8 hPa South 3.2 km/h 11.3 km/h 80% 0 mm
23:40 16.1 °C 12.7 °C 1013.8 hPa South 6.4 km/h 16.1 km/h 80% 0 mm
23:45 16.1 °C 12.7 °C 1013.8 hPa South 8 km/h 16.1 km/h 80% 0 mm
23:50 16.1 °C 12.7 °C 1013.8 hPa South 8 km/h 17.7 km/h 80% 0 mm
23:55 16 °C 12.7 °C 1013.8 hPa South 6.4 km/h 17.7 km/h 81% 0 mm
Buffalo, New York, USA
Compliments of Weather Underground - 2.5 mb